FW0770 Weather Reports


Display with metric or nautical units.
time (UTC)temp
F
wind
direction
speed
MPH
gust
MPH
rain 1hr
in
rain 24hr
in
rain mn
in
humidity
%
barometer
mb
20180818105007 72 128 0.0 0.0 0.02 0.03 0.03 96
20180818104507 72 128 0.0 0.0 0.03 0.03 0.03 96
20180818104007 72 128 0.0 0.0 0.03 0.03 0.03 96
20180818103507 72 128 0.0 0.0 0.03 0.03 0.03 96
20180818103007 72 128 0.0 0.0 0.03 0.03 0.03 96
20180818102507 72 128 0.0 0.0 0.03 0.03 0.03 96
20180818102008 72 128 0.0 0.0 0.03 0.03 0.03 96
20180818101507 72 128 0.0 1.0 0.03 0.03 0.03 96
20180818101007 72 96 1.0 3.0 0.03 0.03 0.03 96
20180818100507 72 112 0.0 0.0 0.03 0.03 0.03 96
20180818100007 72 112 0.0 0.0 0.03 0.03 0.03 96
20180818095507 72 112 0.0 0.0 0.01 0.01 0.01 96
20180818095007 72 112 0.0 0.0 0.01 0.01 0.01 96
20180818094507 72 112 0.0 0.0 0.00 0.00 0.00 96
20180818094007 71 112 0.0 0.0 0.00 0.00 0.00 96
20180818093507 72 112 0.0 0.0 0.00 0.00 0.00 96
20180818093007 72 112 0.0 0.0 0.00 0.00 0.00 96
20180818092507 72 112 0.0 0.0 0.00 0.00 0.00 96
20180818092007 72 112 0.0 0.0 0.00 0.00 0.00 96
20180818091508 72 112 0.0 0.0 0.00 0.00 0.00 96
20180818091007 72 112 0.0 0.0 0.00 0.00 0.00 96
20180818090507 72 112 0.0 0.0 0.00 0.00 0.00 96
20180818090007 72 112 0.0 0.0 0.00 0.00 0.00 96
20180818085507 72 112 0.0 0.0 0.00 0.00 0.00 96
20180818085007 72 112 0.0 0.0 0.00 0.00 0.00 96
20180818084507 72 112 0.0 0.0 0.00 0.00 0.00 96
20180818084007 72 112 0.0 0.0 0.00 0.00 0.00 96
20180818083506 71 112 0.0 0.0 0.00 0.00 0.00 96
20180818083007 72 112 0.0 0.0 0.00 0.00 0.00 96
20180818082507 72 112 0.0 0.0 0.00 0.00 0.00 96
20180818082007 72 112 0.0 0.0 0.00 0.00 0.00 96
20180818081508 72 112 0.0 0.0 0.00 0.00 0.00 96
20180818081007 72 112 0.0 0.0 0.00 0.00 0.00 96
20180818080507 72 112 0.0 0.0 0.00 0.00 0.00 96
20180818080007 72 112 0.0 0.0 0.00 0.00 0.00 96
20180818075510 72 112 0.0 0.0 0.00 0.00 0.00 96
20180818075008 72 112 0.0 0.0 0.00 0.00 0.00 96
20180818074508 72 112 0.0 0.0 0.00 0.00 0.00 96
20180818074007 72 112 0.0 0.0 0.00 0.00 0.00 96
20180818073507 72 112 0.0 0.0 0.00 0.00 0.00 96
20180818073007 72 112 0.0 0.0 0.00 0.00 0.00 96
20180818072507 72 112 0.0 0.0 0.00 0.00 0.00 96
20180818072007 72 112 0.0 0.0 0.00 0.00 0.00 96
20180818071507 72 112 0.0 0.0 0.00 0.00 0.00 96
20180818071007 72 112 0.0 0.0 0.00 0.00 0.00 96
20180818070507 72 112 0.0 0.0 0.00 0.00 0.00 96
20180818070007 72 112 0.0 0.0 0.00 0.00 0.00 96
20180818065507 73 112 0.0 0.0 0.00 0.00 0.00 96
20180818065007 73 112 0.0 0.0 0.00 0.00 0.00 96
20180818064507 73 112 0.0 0.0 0.00 0.00 0.00 95
20180818064007 73 112 0.0 0.0 0.00 0.00 0.00 95
20180818063507 73 112 0.0 0.0 0.00 0.00 0.00 95
20180818063007 73 112 0.0 0.0 0.00 0.00 0.00 95
20180818062507 73 112 0.0 0.0 0.00 0.00 0.00 95
20180818062007 73 112 0.0 0.0 0.00 0.00 0.00 95
20180818061507 73 112 0.0 0.0 0.00 0.00 0.00 95
20180818061007 73 112 0.0 0.0 0.00 0.00 0.00 95
20180818060507 73 112 0.0 0.0 0.00 0.00 0.00 96
20180818060007 73 112 0.0 0.0 0.00 0.00 0.00 96
20180818055507 73 112 0.0 0.0 0.00 0.00 0.00 95
20180818055006 73 112 0.0 1.0 0.00 0.00 0.00 95
20180818054507 74 116 0.0 0.0 0.00 0.00 0.00 95
20180818054007 74 116 0.0 0.0 0.00 0.00 0.00 95
20180818053506 74 116 0.0 0.0 0.00 0.00 0.00 95
20180818053007 74 116 0.0 0.0 0.00 0.00 0.00 95
20180818052507 74 116 0.0 0.0 0.00 0.00 0.00 95
20180818052007 74 116 0.0 0.0 0.00 0.00 0.00 95
20180818051508 74 116 0.0 1.0 0.00 0.00 0.00 95
20180818051006 74 121 1.0 2.0 0.00 0.00 0.00 95
20180818050507 74 175 0.0 0.0 0.00 0.00 0.00 94
20180818050007 74 175 0.0 0.0 0.00 0.00 0.00 94
20180818045507 74 175 0.0 0.0 0.00 0.00 0.00 94
20180818045007 74 175 0.0 0.0 0.00 0.00 0.00 94
20180818044507 74 175 0.0 0.0 0.00 0.00 0.00 94
20180818044007 74 175 0.0 0.0 0.00 0.00 0.00 94
20180818043507 74 175 0.0 0.0 0.00 0.00 0.00 94
20180818043008 74 175 0.0 0.0 0.00 0.00 0.00 94
20180818042507 74 175 0.0 1.0 0.00 0.00 0.00 94
20180818042007 74 198 1.0 2.0 0.00 0.00 0.00 94
20180818041507 74 140 0.0 0.0 0.00 0.00 0.00 94
20180818041007 74 140 0.0 0.0 0.00 0.00 0.00 93
20180818040507 74 140 0.0 0.0 0.00 0.00 0.00 93
20180818040007 74 140 0.0 0.0 0.00 0.00 0.00 93
20180818035507 74 140 0.0 0.0 0.00 0.00 0.00 93
20180818035007 74 140 0.0 0.0 0.00 0.00 0.00 93
20180818034507 74 140 0.0 0.0 0.00 0.00 0.00 93
20180818034007 74 140 0.0 0.0 0.00 0.00 0.00 93
20180818033507 74 140 0.0 0.0 0.00 0.00 0.00 94
20180818033007 74 140 0.0 0.0 0.00 0.00 0.00 94
20180818032507 74 140 1.0 3.0 0.00 0.00 0.00 94
20180818032008 74 165 1.0 3.0 0.00 0.00 0.00 94
20180818031507 74 159 2.0 3.0 0.00 0.00 0.00 94
20180818031008 74 148 1.0 3.0 0.00 0.00 0.00 93
20180818030507 74 133 1.0 2.0 0.00 0.00 0.00 93
20180818030007 74 114 0.0 1.0 0.00 0.00 0.00 92
20180818025507 74 198 0.0 0.0 0.00 0.00 0.00 92
20180818025008 74 198 0.0 0.0 0.00 0.00 0.00 92
20180818024507 75 198 0.0 0.0 0.00 0.00 0.00 91
20180818024007 75 198 0.0 0.0 0.00 0.00 0.00 91
20180818023507 75 198 0.0 0.0 0.00 0.00 0.00 90
20180818023007 75 198 0.0 0.0 0.00 0.00 0.00 90
20180818022507 75 198 0.0 0.0 0.00 0.00 0.00 90
20180818022007 75 198 0.0 0.0 0.00 0.00 0.00 90
20180818021508 75 198 0.0 0.0 0.00 0.00 0.00 90
20180818021007 75 198 0.0 0.0 0.00 0.00 0.00 90
20180818020507 75 198 0.0 0.0 0.00 0.00 0.00 90
20180818020007 76 198 0.0 0.0 0.00 0.00 0.00 89
20180818015507 76 198 0.0 0.0 0.00 0.00 0.00 89
20180818015007 76 198 0.0 0.0 0.00 0.00 0.00 89
20180818014507 76 198 0.0 0.0 0.00 0.00 0.00 89
20180818014007 76 198 0.0 0.0 0.00 0.00 0.00 88
20180818013507 76 198 0.0 0.0 0.00 0.00 0.00 88
20180818013007 76 198 0.0 0.0 0.00 0.00 0.00 88
20180818012508 77 198 0.0 0.0 0.00 0.00 0.00 88
20180818012007 77 198 0.0 0.0 0.00 0.00 0.00 87
20180818011507 77 198 0.0 0.0 0.00 0.00 0.00 86
20180818011008 77 198 0.0 0.0 0.00 0.00 0.00 86
20180818010507 78 198 0.0 0.0 0.00 0.00 0.00 85
20180818010006 78 198 0.0 0.0 0.00 0.00 0.00 84
20180818005507 78 198 0.0 0.0 0.00 0.00 0.00 84
20180818005007 78 198 0.0 0.0 0.00 0.00 0.00 84
20180818004507 79 198 0.0 0.0 0.00 0.00 0.00 83
20180818004007 79 198 0.0 0.0 0.00 0.00 0.00 82
20180818003509 79 198 0.0 0.0 0.00 0.00 0.00 82
20180818003007 79 198 0.0 0.0 0.00 0.00 0.00 81
20180818002507 80 198 0.0 0.0 0.00 0.00 0.00 81
20180818002007 80 198 0.0 2.0 0.00 0.00 0.00 80
20180818001507 80 119 0.0 0.0 0.00 0.00 0.00 80
20180818001007 80 119 0.0 0.0 0.00 0.00 0.00 80
20180818000507 80 119 0.0 0.0 0.00 0.00 0.00 79
20180818000008 80 119 0.0 0.0 0.00 0.00 0.00 79
20180817235507 80 119 0.0 0.0 0.00 0.00 0.00 79
20180817235008 80 119 0.0 0.0 0.00 0.00 0.00 78
20180817234508 80 119 0.0 0.0 0.00 0.00 0.00 78
20180817234007 80 119 1.0 3.0 0.00 0.00 0.00 77
20180817233508 81 172 1.0 2.0 0.00 0.00 0.00 77
20180817233008 81 158 0.0 3.0 0.00 0.00 0.00 77
20180817232507 81 190 1.0 3.0 0.00 0.00 0.00 77
20180817232007 81 199 1.0 3.0 0.00 0.00 0.00 76
20180817231509 81 215 3.0 5.0 0.00 0.00 0.00 76
20180817231008 81 197 2.0 5.0 0.00 0.00 0.00 76
20180817230507 81 212 3.0 6.0 0.00 0.00 0.00 76
20180817230036 81 188 2.0 5.0 0.00 0.00 0.00 76
20180817225507 81 221 2.0 6.0 0.00 0.00 0.00 76
20180817225008 82 159 3.0 7.0 0.00 0.00 0.00 76
20180817224512 82 179 3.0 7.0 0.00 0.00 0.00 75
20180817224007 82 191 5.0 9.0 0.00 0.00 0.00 75
20180817223507 82 189 5.0 8.0 0.00 0.00 0.00 74
20180817223008 83 179 5.0 9.0 0.00 0.00 0.00 74
20180817222507 83 184 6.0 8.0 0.00 0.00 0.00 73
20180817222007 83 193 5.0 12.0 0.00 0.00 0.00 72
20180817221507 84 190 4.0 8.0 0.00 0.00 0.00 71
20180817221007 84 247 4.0 8.0 0.00 0.00 0.00 71
20180817220507 84 216 4.0 8.0 0.00 0.00 0.00 71
20180817220007 84 184 5.0 13.0 0.00 0.00 0.00 70
20180817215507 84 210 5.0 8.0 0.00 0.00 0.00 72
20180817215008 84 206 6.0 13.0 0.00 0.00 0.00 71
20180817214507 84 200 8.0 17.0 0.00 0.00 0.00 70
20180817214007 84 180 9.0 14.0 0.00 0.00 0.00 70
20180817213507 85 194 8.0 13.0 0.00 0.00 0.00 70
20180817213007 84 174 5.0 12.0 0.00 0.00 0.00 73
20180817212508 80 197 5.0 5.0 0.00 0.00 0.00 80
20180817172508 80 210 5.0 9.0 0.00 0.00 0.00 81
20180817172011 79 198 6.0 10.0 0.00 0.00 0.00 81
20180817171507 79 187 6.0 9.0 0.00 0.00 0.00 81
20180817171007 79 194 4.0 7.0 0.00 0.00 0.00 81
20180817170507 79 187 3.0 13.0 0.00 0.00 0.00 80
20180817170007 79 200 8.0 14.0 0.00 0.00 0.00 80
20180817165510 79 185 2.0 9.0 0.00 0.00 0.00 80
20180817165007 79 191 6.0 10.0 0.00 0.00 0.00 80
20180817164507 79 195 6.0 10.0 0.00 0.00 0.00 80
20180817164007 79 198 5.0 8.0 0.00 0.00 0.00 81
20180817163507 79 194 5.0 10.0 0.00 0.00 0.00 80
20180817163007 79 211 6.0 9.0 0.00 0.00 0.00 81
20180817162507 79 199 6.0 10.0 0.00 0.00 0.00 81
20180817162007 79 182 4.0 10.0 0.00 0.00 0.00 82
20180817161507 78 192 6.0 9.0 0.00 0.00 0.00 82
20180817161007 79 189 6.0 10.0 0.00 0.00 0.00 82
20180817160508 79 182 8.0 13.0 0.00 0.00 0.00 82
20180817151507 80 204 7.0 18.0 0.00 0.00 0.00 81
20180817151007 80 204 7.0 13.0 0.00 0.00 0.00 81
20180817150506 79 186 8.0 14.0 0.00 0.00 0.00 82
20180817150007 80 201 9.0 15.0 0.00 0.00 0.00 80
20180817145507 80 182 6.0 15.0 0.00 0.00 0.00 79
20180817145007 81 179 6.0 15.0 0.00 0.00 0.00 79
20180817144508 81 171 5.0 14.0 0.00 0.00 0.00 77
20180817144007 82 195 7.0 15.0 0.00 0.00 0.00 75
20180817143507 82 201 7.0 14.0 0.00 0.00 0.00 76
20180817143007 82 176 7.0 13.0 0.00 0.00 0.00 76
20180817142507 81 208 5.0 12.0 0.00 0.00 0.00 79
20180817142007 79 184 5.0 10.0 0.00 0.00 0.00 82
20180817141507 78 182 7.0 14.0 0.00 0.00 0.00 84
20180817141007 78 192 7.0 10.0 0.00 0.00 0.00 84
20180817140507 79 192 7.0 13.0 0.00 0.00 0.00 82
20180817140007 80 198 6.0 12.0 0.00 0.00 0.00 80
20180817135507 80 186 3.0 8.0 0.00 0.00 0.00 82
20180817135008 79 150 2.0 6.0 0.00 0.00 0.00 85
20180817134507 77 227 2.0 7.0 0.00 0.00 0.00 88
20180817134007 76 214 5.0 9.0 0.00 0.00 0.00 88
20180817133507 76 215 3.0 8.0 0.00 0.00 0.00 89
20180817133008 76 183 4.0 9.0 0.00 0.00 0.00 90
20180817132508 75 195 6.0 12.0 0.00 0.00 0.00 90
20180817132012 75 181 4.0 8.0 0.00 0.00 0.00 91
20180817131507 75 230 3.0 6.0 0.00 0.00 0.00 91
20180817131007 75 199 7.0 9.0 0.00 0.00 0.00 91
20180817130507 75 186 5.0 10.0 0.00 0.00 0.00 92
20180817130007 75 181 5.0 6.0 0.00 0.00 0.00 92
20180817125507 75 181 3.0 7.0 0.00 0.00 0.00 92
20180817125008 75 185 3.0 7.0 0.00 0.00 0.00 92
20180817124507 74 219 3.0 8.0 0.00 0.00 0.00 93
20180817124007 74 158 2.0 3.0 0.00 0.00 0.00 93
20180817123013 74 199 5.0 7.0 0.00 0.00 0.00 94